[[{"header":{"parameterUnit":"m.s-1","parameterCategory":2,"la1":30.2991,"la2":30.254,"lo1":-89.0895,"lo2":-89.0444,"dy":0.0017,"dx":0.0017,"nx":28,"ny":28,"refTime":"2025-11-30T09:00:00:Z","depth":"0","parameterNumber":2,"parameterNumberName":"U-component_of_CURRENTS"},"data":[0,0,0,0,0,0,0,0,0,0,0,0,0,0,0,0,0,0,0,0,0,0,0,0,0,0,0,0,0,0,0,0,0,0,0,0,0,0,0,0,0,0,0,0,0,0,0,0,0,0,0,0,0,0,0,0,0,0,-0.2362,-0.2363,0,-0.2391,-0.2391,-0.2391,-0.2369,-0.2369,-0.2368,-0.2367,-0.2337,-0.2337,-0.2337,0,0,0,0,0,0,0,0,0,0,0,0,0,-0.2287,-0.2288,-0.2362,-0.2363,-0.2363,-0.2391,-0.2391,-0.2391,-0.237,-0.2369,-0.2368,-0.2367,-0.2337,-0.2337,-0.2337,0,0,0,0,0,0,0,0,0,0,0,0,0,-0.2316,-0.2289,-0.2362,-0.2358,-0.2358,-0.2391,-0.2391,-0.2391,-0.237,-0.2369,-0.2368,-0.2367,-0.2337,-0.2337,-0.2337,-0.2358,0,0,-0.2336,-0.2336,0,0,0,0,0,0,0,0,-0.2314,-0.2318,-0.2358,-0.2358,-0.2358,-0.2377,-0.2353,-0.2378,-0.237,-0.2363,-0.2367,-0.2366,-0.2348,-0.2347,-0.2352,-0.2356,-0.2355,-0.2336,-0.2336,-0.2336,-0.2336,0,0,0,0,0,0,0,-0.2312,-0.2317,-0.2371,-0.2358,-0.2359,-0.2354,-0.2356,-0.2358,-0.2358,-0.2363,-0.2362,-0.237,-0.2347,-0.2352,-0.2351,-0.2355,-0.2336,-0.2336,-0.2336,-0.2336,-0.2374,-0.2375,0,0,0,0,0,0,-0.2315,-0.2315,-0.237,-0.2372,-0.2336,-0.2356,-0.2359,-0.237,-0.2359,-0.2358,-0.237,-0.2368,-0.2353,-0.2351,-0.235,-0.2375,-0.2336,-0.2336,-0.2336,-0.2372,-0.2374,-0.2375,0,0,0,0,0,0,-0.2313,-0.232,-0.2369,-0.2346,-0.2352,-0.2359,-0.2372,-0.2372,-0.2372,-0.2366,-0.2362,-0.2371,-0.2352,-0.235,-0.2355,-0.2374,-0.2336,-0.2336,-0.2371,-0.2373,-0.2374,-0.2425,0,0,0,0,0,0,-0.2311,-0.2319,-0.2324,-0.2346,-0.2353,-0.2392,-0.2373,-0.2373,-0.238,-0.2377,-0.2365,-0.2362,-0.2351,-0.2356,-0.2355,-0.2373,-0.2336,-0.237,-0.2372,-0.2374,-0.2422,-0.2428,-0.2434,0,0,0,0,0,-0.2308,-0.2323,-0.2325,-0.2331,-0.2362,-0.2393,-0.2397,-0.2396,-0.2381,-0.239,-0.2381,-0.2362,-0.2368,-0.2357,-0.2356,-0.2374,-0.2369,-0.2371,-0.2374,-0.242,-0.2427,-0.2434,0,0,0,0,0,0,-0.229,-0.2323,-0.2325,-0.2347,-0.237,-0.239,-0.2397,-0.2398,-0.2399,-0.2391,-0.2376,-0.2373,-0.2386,-0.2375,-0.2362,-0.2391,-0.2366,-0.2368,-0.2401,-0.2408,-0.2414,-0.2413,-0.2336,0,0,0,0,0,-0.2291,-0.2308,-0.234,-0.2355,-0.2368,-0.2382,-0.2392,-0.2397,-0.2405,-0.2403,-0.2397,-0.2392,-0.2398,-0.2397,-0.2399,-0.2415,-0.2406,-0.2426,-0.2432,-0.2437,-0.2437,-0.2444,-0.245,-0.2383,-0.2383,-0.2383,0,0,-0.2286,-0.2307,-0.2315,-0.2352,-0.2366,-0.2398,-0.2384,-0.2406,-0.2428,-0.2401,-0.2418,-0.2412,-0.2407,-0.2427,-0.2431,-0.2417,-0.2454,-0.244,-0.2444,-0.2441,-0.2447,-0.2454,-0.2459,-0.2385,-0.2384,-0.2384,0,0,-0.2294,-0.2306,-0.2328,-0.2354,-0.2386,-0.2402,-0.241,-0.2436,-0.244,-0.2464,-0.245,-0.2457,-0.2462,-0.2468,-0.247,-0.251,-0.2485,-0.2507,-0.2536,-0.2543,-0.2548,-0.2553,-0.256,-0.2565,-0.251,-0.251,-0.251,0,-0.2286,-0.232,-0.2338,-0.2372,-0.2394,-0.2407,-0.244,-0.2458,-0.248,-0.249,-0.2474,-0.2494,-0.2486,-0.2516,-0.2526,-0.2523,-0.2518,-0.2509,-0.255,-0.2554,-0.2558,-0.2564,-0.2569,-0.2512,-0.2512,-0.2512,-0.2512,0,-0.2317,-0.2345,-0.236,-0.2408,-0.2436,-0.2464,-0.25,-0.252,-0.2524,-0.254,-0.2564,-0.256,-0.2567,-0.2572,-0.2558,-0.2587,-0.2572,-0.2557,-0.2531,-0.2568,-0.2572,-0.2576,-0.2516,-0.2515,-0.2515,-0.2514,0,0,-0.2292,-0.2368,-0.237,-0.24,-0.2457,-0.2483,-0.2528,-0.2572,-0.2597,-0.2612,-0.2641,-0.2652,-0.2638,-0.264,-0.2628,-0.2633,-0.2658,-0.2604,-0.2603,-0.2609,-0.2672,-0.2622,-0.2621,-0.2644,-0.2645,-0.2646,-0.2667,0,-0.2307,-0.2369,-0.2407,-0.2464,-0.2498,-0.2536,-0.2578,-0.2618,-0.2642,-0.2674,-0.2678,-0.2697,-0.2669,-0.2669,-0.2673,-0.2661,-0.2668,-0.2653,-0.2637,-0.2636,-0.2585,-0.2624,-0.2519,-0.2526,-0.2671,-0.2671,-0.2672,0,-0.2319,-0.236,-0.2417,-0.2493,-0.2511,-0.2546,-0.2607,-0.2649,-0.2702,-0.272,-0.2741,-0.2743,-0.2761,-0.2726,-0.2729,-0.2718,-0.2696,-0.2686,-0.2686,-0.2622,-0.2593,-0.251,-0.2527,-0.2501,-0.2677,-0.2677,-0.2676,0,-0.228,-0.2365,-0.2405,-0.2432,-0.2521,-0.2546,-0.2587,-0.265,-0.2685,-0.2741,-0.2766,-0.279,-0.2794,-0.2783,-0.2753,-0.2742,-0.2751,-0.2735,-0.2676,-0.2673,-0.2571,-0.2556,-0.2555,-0.2737,-0.2737,-0.2737,-0.2737,0,-0.2275,-0.2305,-0.2386,-0.2407,-0.2451,-0.2522,-0.257,-0.2616,-0.2685,-0.2727,-0.2771,-0.2799,-0.2804,-0.2808,-0.2779,-0.2738,-0.2771,-0.2688,-0.2677,-0.2587,-0.2574,-0.2535,-0.2543,-0.2737,-0.2737,-0.2737,-0.2737,0,-0.2216,-0.2277,-0.2321,-0.2406,-0.2431,-0.2453,-0.2544,-0.2578,-0.2655,-0.2711,-0.2729,-0.2803,-0.282,-0.2821,-0.2811,-0.2762,-0.2685,-0.2709,-0.2604,-0.2579,-0.2493,-0.2507,-0.2474,-0.2406,-0.2657,-0.2656,-0.2655,0,-0.219,-0.2207,-0.2288,-0.2308,-0.2339,-0.2393,-0.2429,-0.2532,-0.2578,-0.2706,-0.2723,-0.2782,-0.2804,-0.2789,-0.2735,-0.2693,-0.2652,-0.2552,-0.251,-0.248,-0.2489,-0.248,-0.2424,-0.2403,-0.24,-0.2397,-0.2395,0,-0.2122,-0.2146,-0.2178,-0.2216,-0.2252,-0.2304,-0.2368,-0.2407,-0.2534,-0.2593,-0.2671,-0.2708,-0.2738,-0.2665,-0.2618,-0.2564,-0.248,-0.2501,-0.2494,-0.2311,-0.2277,-0.2207,-0.2408,-0.2374,-0.2376,-0.2378,-0.2379,-0.238,-0.2046,-0.2044,-0.2079,-0.2104,-0.2147,-0.2181,-0.2185,-0.2279,-0.2335,-0.2409,-0.2535,-0.2567,-0.2556,-0.2491,-0.2444,-0.2317,-0.2359,-0.2227,-0.2256,-0.2257,-0.216,-0.2317,-0.2255,-0.2256,-0.2257,-0.2258,-0.2259,0,-0.1939,-0.1949,-0.1967,-0.1991,-0.1984,-0.2051,-0.2113,-0.2098,-0.212,-0.2243,-0.2298,-0.2351,-0.2273,-0.2273,-0.2183,-0.2088,-0.2021,-0.2031,-0.1993,-0.1952,-0.2104,-0.2059,-0.1921,-0.1921,-0.1921,-0.1921,-0.1921,-0.1922,-0.1884,-0.1854,-0.1863,-0.1808,-0.1825,-0.1775,-0.178,-0.1786,-0.184,-0.1893,-0.1983,-0.2106,-0.2122,-0.2203,-0.2073,-0.1971,-0.1902,-0.1844,-0.1869,-0.1986,-0.2007,-0.2026,-0.1985,-0.1834,-0.1834,-0.1631,-0.1629,-0.1628]},{"header":{"parameterUnit":"m.s-1","parameterCategory":2,"la1":30.2991,"la2":30.254,"lo1":-89.0895,"lo2":-89.0444,"dy":0.0017,"dx":0.0017,"nx":28,"ny":28,"refTime":"2025-11-30T09:00:00:Z","depth":"0","parameterNumber":3,"parameterNumberName":"V-component_of_CURRENTS"},"data":[0,0,0,0,0,0,0,0,0,0,0,0,0,0,0,0,0,0,0,0,0,0,0,0,0,0,0,0,0,0,0,0,0,0,0,0,0,0,0,0,0,0,0,0,0,0,0,0,0,0,0,0,0,0,0,0,0,0,-0.0328,-0.0327,0,-0.0221,-0.022,-0.0218,-0.015,-0.015,-0.015,-0.015,-0.0026,-0.0023,-0.002,0,0,0,0,0,0,0,0,0,0,0,0,0,-0.0401,-0.04,-0.0328,-0.0327,-0.0326,-0.0221,-0.022,-0.0218,-0.015,-0.015,-0.015,-0.0149,-0.0027,-0.0023,-0.0019,0,0,0,0,0,0,0,0,0,0,0,0,0,-0.0338,-0.04,-0.0328,-0.028,-0.0275,-0.0222,-0.022,-0.0218,-0.015,-0.015,-0.015,-0.0149,-0.0028,-0.0024,-0.0019,0.0002,0,0,-0.0005,-0.0003,0,0,0,0,0,0,0,0,-0.0342,-0.0335,-0.0289,-0.0284,-0.0278,-0.02,-0.02,-0.0144,-0.015,-0.0196,-0.015,-0.0149,-0.0084,-0.0075,-0.0053,0.0008,0.0013,-0.0005,-0.0002,0.0,0.0002,0,0,0,0,0,0,0,-0.0346,-0.0339,-0.0284,-0.0287,-0.0281,-0.024,-0.0231,-0.0189,-0.0142,-0.0192,-0.0187,-0.0178,-0.008,-0.0058,-0.005,0.0015,-0.0005,-0.0001,0.0002,0.0004,0.0105,0.0105,0,0,0,0,0,0,-0.0367,-0.0343,-0.0287,-0.0281,-0.0311,-0.0239,-0.0229,-0.0224,-0.0142,-0.013,-0.0179,-0.0175,-0.0066,-0.0055,-0.0045,-0.0016,0.0,0.0004,0.0007,0.0105,0.0105,0.0105,0,0,0,0,0,0,-0.0369,-0.0363,-0.0292,-0.0311,-0.0299,-0.0239,-0.0233,-0.0222,-0.0199,-0.0133,-0.012,-0.0168,-0.0065,-0.0052,-0.0008,-0.001,0.0007,0.0011,0.0105,0.0105,0.0105,0.0043,0,0,0,0,0,0,-0.0371,-0.0364,-0.0368,-0.0312,-0.0299,-0.0268,-0.0234,-0.022,-0.0195,-0.019,-0.0119,-0.0107,-0.0064,-0.0015,-0.0004,-0.0004,0.0014,0.0105,0.0105,0.0105,0.0045,0.0041,0.0037,0,0,0,0,0,-0.0374,-0.0383,-0.0369,-0.0362,-0.0306,-0.0268,-0.0257,-0.0212,-0.0196,-0.0189,-0.0139,-0.0109,-0.0008,-0.0012,0.0002,0.0003,0.0105,0.0105,0.0105,0.0047,0.0042,0.0037,0,0,0,0,0,0,-0.0413,-0.0375,-0.0359,-0.0354,-0.0318,-0.0257,-0.0248,-0.0218,-0.0173,-0.0169,-0.0106,-0.0091,-0.0055,-0.0018,-0.0024,0.0031,0.0052,0.0055,0.0003,-0.0001,-0.0005,-0.002,0.0018,0,0,0,0,0,-0.0426,-0.0424,-0.0377,-0.0374,-0.036,-0.0306,-0.0286,-0.0256,-0.0209,-0.0189,-0.014,-0.0089,-0.0045,-0.0018,0.0024,0.0057,0.0095,0.0066,0.0062,0.0058,0.0055,0.0107,0.0107,0.0104,0.0104,0.0104,0,0,-0.044,-0.0419,-0.0417,-0.0382,-0.0351,-0.0337,-0.0293,-0.0268,-0.0251,-0.0183,-0.0149,-0.0103,-0.0041,-0.0004,0.0015,0.0028,0.0079,0.0058,0.0054,0.0053,0.0106,0.0107,0.0107,0.0104,0.0104,0.0104,0,0,-0.0471,-0.045,-0.046,-0.0435,-0.0398,-0.0363,-0.0361,-0.0305,-0.0276,-0.0238,-0.0187,-0.0142,-0.0075,-0.0028,0.0003,0.0003,0.0052,0.0013,-0.0013,0.0037,0.0037,0.0038,0.0083,0.0089,0.0015,0.0015,0.0015,0,-0.049,-0.0494,-0.0455,-0.0456,-0.0442,-0.0381,-0.0384,-0.0344,-0.028,-0.0256,-0.0238,-0.0135,-0.0086,-0.0032,-0.0032,-0.0006,0.0027,-0.0001,0.0031,0.0033,0.0035,0.0081,0.0088,0.0012,0.0012,0.0013,0.0013,0,-0.0524,-0.0527,-0.053,-0.0513,-0.0491,-0.0483,-0.0428,-0.04,-0.036,-0.0315,-0.0258,-0.0185,-0.0123,-0.0102,-0.0065,-0.0026,-0.0005,0.0015,0.004,0.0031,0.008,0.0089,0.0008,0.0009,0.001,0.001,0,0,-0.0568,-0.0559,-0.056,-0.0567,-0.0522,-0.051,-0.0481,-0.0436,-0.0416,-0.0349,-0.0315,-0.0235,-0.0191,-0.0153,-0.0097,-0.0051,-0.0008,-0.0018,-0.0014,0.002,0.01,0.0149,0.0163,0.0017,0.0018,0.0019,0.0127,0,-0.0607,-0.0637,-0.061,-0.0627,-0.0638,-0.0577,-0.0556,-0.0505,-0.0448,-0.0399,-0.0312,-0.026,-0.021,-0.0181,-0.0127,-0.0034,0.0011,-0.0039,0.0109,0.0113,0.0153,0.0173,0.0198,0.03,0.0136,0.0137,0.0138,0,-0.0646,-0.0664,-0.0697,-0.0694,-0.0691,-0.0685,-0.0641,-0.0612,-0.0522,-0.0478,-0.0403,-0.0329,-0.0239,-0.0205,-0.005,-0.0084,-0.0004,0.0066,0.0072,0.0145,0.0178,0.0285,0.0322,0.0468,0.0151,0.015,0.0149,0,-0.0705,-0.0721,-0.0755,-0.0753,-0.0735,-0.0732,-0.0712,-0.0639,-0.0616,-0.0524,-0.0494,-0.0372,-0.0309,-0.019,-0.0035,-0.0042,0.0132,0.0143,0.0262,0.0266,0.0331,0.034,0.0524,0.0237,0.0236,0.0236,0.0236,0,-0.0757,-0.0782,-0.0789,-0.0808,-0.0839,-0.0797,-0.0803,-0.0757,-0.0693,-0.0665,-0.0543,-0.049,-0.0304,-0.0174,-0.0045,0.0146,0.0131,0.0265,0.0303,0.0311,0.0316,0.0481,0.0529,0.024,0.0239,0.0239,0.0238,0,-0.0812,-0.0816,-0.086,-0.0867,-0.0871,-0.0892,-0.0878,-0.0876,-0.0801,-0.0759,-0.0733,-0.057,-0.0385,-0.0192,0.0018,0.0137,0.04,0.0369,0.0366,0.0402,0.0647,0.0688,0.09,0.0971,0.0523,0.0525,0.0527,0,-0.0842,-0.0872,-0.0915,-0.095,-0.0957,-0.0981,-0.0994,-0.0939,-0.0929,-0.0805,-0.0789,-0.0599,-0.0452,-0.0112,0.014,0.0397,0.0492,0.0552,0.0544,0.0679,0.0752,0.0781,0.0826,0.0606,0.0608,0.061,0.0611,0,-0.0899,-0.0914,-0.0953,-0.103,-0.1067,-0.1104,-0.1113,-0.1121,-0.104,-0.0982,-0.0865,-0.0734,-0.0373,-0.0052,0.0296,0.0447,0.0661,0.0596,0.0744,0.0844,0.088,0.0959,0.0511,0.0627,0.0626,0.0624,0.0624,0.0623,-0.0933,-0.0981,-0.1038,-0.1107,-0.1159,-0.1209,-0.1238,-0.1223,-0.1195,-0.1084,-0.0942,-0.0718,-0.0231,0.028,0.0461,0.0856,0.0814,0.0961,0.1003,0.1023,0.1089,0.0674,0.0825,0.0825,0.0825,0.0824,0.0824,0,-0.0976,-0.1033,-0.111,-0.1192,-0.1265,-0.1268,-0.1303,-0.1309,-0.1279,-0.1127,-0.0982,-0.046,0.0021,0.047,0.1038,0.1245,0.1278,0.1346,0.1395,0.1423,0.1075,0.1077,0.128,0.128,0.1279,0.1279,0.1279,0.1279,-0.1001,-0.1085,-0.1131,-0.1261,-0.132,-0.1392,-0.1413,-0.1393,-0.1303,-0.1057,-0.0769,-0.0534,0.0141,0.1064,0.1587,0.1633,0.1778,0.1773,0.1853,0.1615,0.1582,0.155,0.1567,0.1869,0.187,0.2184,0.2187,0.2189]}],[{"header":{"parameterUnit":"m.s-1","parameterCategory":2,"la1":30.2991,"la2":30.254,"lo1":-89.0895,"lo2":-89.0444,"dy":0.0017,"dx":0.0017,"nx":28,"ny":28,"refTime":"2025-11-30T09:00:00:Z","depth":"2","parameterNumber":2,"parameterNumberName":"U-component_of_CURRENTS"},"data":[0,0,0,0,0,0,0,0,0,0,0,0,0,0,0,0,0,0,0,0,0,0,0,0,0,0,0,0,0,0,0,0,0,0,0,0,0,0,0,0,0,0,0,0,0,0,0,0,0,0,0,0,0,0,0,0,0,0,-0.2051,-0.2052,0,-0.2078,-0.2078,-0.2078,-0.2065,-0.2064,-0.2064,-0.2064,-0.205,-0.205,-0.205,0,0,0,0,0,0,0,0,0,0,0,0,0,-0.1987,-0.1988,-0.2051,-0.2052,-0.2052,-0.2078,-0.2078,-0.2078,-0.2065,-0.2064,-0.2064,-0.2063,-0.205,-0.205,-0.205,0,0,0,0,0,0,0,0,0,0,0,0,0,-0.2013,-0.1989,-0.2051,-0.205,-0.2051,-0.2078,-0.2078,-0.2078,-0.2065,-0.2064,-0.2064,-0.2063,-0.205,-0.205,-0.205,-0.2066,0,0,-0.2051,-0.2051,0,0,0,0,0,0,0,0,-0.2011,-0.2015,-0.205,-0.2051,-0.2051,-0.2069,-0.2051,-0.2073,-0.2065,-0.2057,-0.2063,-0.2063,-0.2055,-0.2054,-0.2059,-0.2065,-0.2065,-0.2051,-0.2051,-0.2051,-0.2051,0,0,0,0,0,0,0,-0.2009,-0.2013,-0.206,-0.2051,-0.2051,-0.2048,-0.2051,-0.2055,-0.2057,-0.2058,-0.2058,-0.2064,-0.2054,-0.2058,-0.2058,-0.2065,-0.2051,-0.2051,-0.2051,-0.2051,-0.2098,-0.2099,0,0,0,0,0,0,-0.2012,-0.2012,-0.2059,-0.2061,-0.2031,-0.205,-0.2053,-0.2062,-0.2058,-0.2058,-0.2065,-0.2064,-0.2059,-0.2058,-0.2057,-0.2091,-0.2051,-0.2051,-0.2051,-0.2096,-0.2098,-0.2099,0,0,0,0,0,0,-0.201,-0.2016,-0.2058,-0.2038,-0.2044,-0.2052,-0.2063,-0.2063,-0.2069,-0.2064,-0.2063,-0.207,-0.2058,-0.2057,-0.2069,-0.2089,-0.2051,-0.2051,-0.2095,-0.2097,-0.2098,-0.2148,0,0,0,0,0,0,-0.2008,-0.2015,-0.2021,-0.2039,-0.2045,-0.208,-0.2064,-0.2065,-0.2075,-0.2073,-0.2068,-0.2066,-0.2057,-0.2069,-0.2069,-0.2089,-0.2051,-0.2094,-0.2096,-0.2098,-0.2144,-0.2151,-0.2156,0,0,0,0,0,-0.2006,-0.2019,-0.2021,-0.2027,-0.2053,-0.2081,-0.2084,-0.2086,-0.2076,-0.2086,-0.2083,-0.2066,-0.2083,-0.207,-0.207,-0.209,-0.2093,-0.2095,-0.2098,-0.2142,-0.215,-0.2156,0,0,0,0,0,0,-0.1992,-0.2019,-0.2022,-0.2041,-0.2063,-0.208,-0.2087,-0.2091,-0.2097,-0.2092,-0.2081,-0.208,-0.2098,-0.2089,-0.2076,-0.2111,-0.2085,-0.2088,-0.2119,-0.2126,-0.2132,-0.2132,-0.2051,0,0,0,0,0,-0.1993,-0.2008,-0.2036,-0.205,-0.2062,-0.2075,-0.2085,-0.2092,-0.2101,-0.2103,-0.2101,-0.2101,-0.211,-0.2113,-0.2117,-0.2137,-0.2129,-0.215,-0.2156,-0.2161,-0.2162,-0.2171,-0.2177,-0.2108,-0.2107,-0.2107,0,0,-0.199,-0.2007,-0.2015,-0.2047,-0.206,-0.209,-0.2079,-0.2101,-0.2124,-0.2101,-0.2124,-0.2122,-0.212,-0.2143,-0.215,-0.2137,-0.2179,-0.2164,-0.2168,-0.2167,-0.2174,-0.2181,-0.2187,-0.2109,-0.2109,-0.2109,0,0,-0.1997,-0.2009,-0.2028,-0.2052,-0.2082,-0.2097,-0.2106,-0.2131,-0.214,-0.2167,-0.2157,-0.2169,-0.2179,-0.2186,-0.219,-0.2231,-0.221,-0.2231,-0.226,-0.227,-0.2275,-0.228,-0.2287,-0.2292,-0.2234,-0.2234,-0.2234,0,-0.1993,-0.2021,-0.2037,-0.2068,-0.2089,-0.2104,-0.2135,-0.2153,-0.2179,-0.2191,-0.218,-0.2207,-0.2203,-0.2234,-0.2247,-0.2245,-0.2241,-0.2233,-0.2277,-0.2281,-0.2285,-0.2291,-0.2296,-0.2236,-0.2236,-0.2236,-0.2236,0,-0.2019,-0.2045,-0.2059,-0.2103,-0.213,-0.2157,-0.2192,-0.2215,-0.2225,-0.2242,-0.2272,-0.2272,-0.2284,-0.2291,-0.228,-0.2312,-0.2298,-0.2283,-0.2257,-0.2295,-0.2299,-0.2303,-0.224,-0.2239,-0.2239,-0.2238,0,0,-0.1996,-0.2065,-0.2068,-0.2096,-0.2151,-0.2174,-0.2221,-0.2265,-0.2292,-0.2313,-0.2346,-0.2362,-0.2354,-0.2357,-0.2349,-0.2357,-0.2385,-0.2331,-0.2331,-0.2335,-0.2402,-0.2349,-0.2348,-0.2373,-0.2374,-0.2375,-0.2396,0,-0.201,-0.2066,-0.2101,-0.2155,-0.2187,-0.2226,-0.2268,-0.231,-0.2338,-0.2374,-0.2383,-0.2407,-0.2383,-0.2388,-0.2395,-0.2387,-0.2396,-0.238,-0.2367,-0.2367,-0.2313,-0.2352,-0.2165,-0.2164,-0.2399,-0.24,-0.2401,0,-0.202,-0.2057,-0.2111,-0.2183,-0.22,-0.2236,-0.23,-0.2342,-0.2399,-0.242,-0.2446,-0.2453,-0.2475,-0.2445,-0.2454,-0.2442,-0.2426,-0.2417,-0.2417,-0.2351,-0.2321,-0.2163,-0.2162,-0.2407,-0.2407,-0.2406,-0.2406,0,-0.1983,-0.2062,-0.2101,-0.2126,-0.2211,-0.2239,-0.2282,-0.2347,-0.2383,-0.2445,-0.2471,-0.25,-0.2509,-0.2503,-0.2481,-0.247,-0.2484,-0.2467,-0.2408,-0.2404,-0.2233,-0.2213,-0.2473,-0.2473,-0.2473,-0.2473,-0.2473,0,-0.1978,-0.2007,-0.2085,-0.2105,-0.215,-0.2219,-0.2271,-0.2319,-0.2389,-0.2431,-0.248,-0.2507,-0.2521,-0.2529,-0.2505,-0.2467,-0.2502,-0.242,-0.2408,-0.2247,-0.2228,-0.2425,-0.2419,-0.2474,-0.2474,-0.2473,-0.2473,0,-0.1923,-0.198,-0.2023,-0.2107,-0.2132,-0.2158,-0.2248,-0.2283,-0.2363,-0.2419,-0.2439,-0.2512,-0.2531,-0.2539,-0.2535,-0.2489,-0.2466,-0.2442,-0.2253,-0.2219,-0.2377,-0.2374,-0.2389,-0.2387,-0.2386,-0.2385,-0.2384,0,-0.1899,-0.1915,-0.1995,-0.2015,-0.2048,-0.2105,-0.2141,-0.2243,-0.2285,-0.241,-0.2425,-0.2487,-0.2501,-0.2493,-0.2442,-0.2405,-0.2445,-0.2194,-0.2142,-0.2383,-0.237,-0.2369,-0.2368,-0.1939,-0.1934,-0.193,-0.1927,0,-0.1837,-0.1863,-0.1894,-0.1932,-0.1969,-0.2018,-0.2081,-0.2114,-0.2237,-0.229,-0.2357,-0.2386,-0.2415,-0.23,-0.2263,-0.2204,-0.2189,-0.2119,-0.2413,-0.1994,-0.1961,-0.1948,-0.1961,-0.1894,-0.1898,-0.19,-0.1902,-0.1903,-0.177,-0.177,-0.1804,-0.1829,-0.1872,-0.19,-0.19,-0.1983,-0.2029,-0.2086,-0.2204,-0.2193,-0.2192,-0.2059,-0.1967,-0.1892,-0.2039,-0.1915,-0.1925,-0.1939,-0.1888,-0.1855,-0.1759,-0.1762,-0.1764,-0.1766,-0.1767,0,-0.1673,-0.1682,-0.1701,-0.1722,-0.1714,-0.1781,-0.183,-0.1804,-0.181,-0.1899,-0.1938,-0.1779,-0.1726,-0.1736,-0.1588,-0.1557,-0.1521,-0.1468,-0.1415,-0.1449,-0.1479,-0.1404,-0.1147,-0.1145,-0.1143,-0.1141,0,0,-0.1623,-0.1595,-0.1601,-0.1547,-0.1565,-0.1513,-0.1513,-0.1497,-0.1521,-0.1488,-0.1496,-0.1651,-0.1698,-0.143,-0.136,-0.1236,-0.1323,-0.1169,-0.1667,-0.1638,-0.1666,-0.1738,-0.1661,0,0,0,0,0]},{"header":{"parameterUnit":"m.s-1","parameterCategory":2,"la1":30.2991,"la2":30.254,"lo1":-89.0895,"lo2":-89.0444,"dy":0.0017,"dx":0.0017,"nx":28,"ny":28,"refTime":"2025-11-30T09:00:00:Z","depth":"2","parameterNumber":3,"parameterNumberName":"V-component_of_CURRENTS"},"data":[0,0,0,0,0,0,0,0,0,0,0,0,0,0,0,0,0,0,0,0,0,0,0,0,0,0,0,0,0,0,0,0,0,0,0,0,0,0,0,0,0,0,0,0,0,0,0,0,0,0,0,0,0,0,0,0,0,0,-0.0201,-0.0201,0,-0.0105,-0.0103,-0.0102,-0.004,-0.0039,-0.0039,-0.0039,0.0076,0.0079,0.0081,0,0,0,0,0,0,0,0,0,0,0,0,0,-0.0264,-0.0264,-0.0202,-0.02,-0.0199,-0.0105,-0.0103,-0.0102,-0.004,-0.0039,-0.0039,-0.0039,0.0075,0.0078,0.0082,0,0,0,0,0,0,0,0,0,0,0,0,0,-0.0208,-0.0263,-0.0202,-0.0158,-0.0154,-0.0105,-0.0103,-0.0101,-0.004,-0.0039,-0.0039,-0.0039,0.0074,0.0078,0.0082,0.0102,0,0,0.0095,0.0097,0,0,0,0,0,0,0,0,-0.0211,-0.0205,-0.0166,-0.0161,-0.0156,-0.0085,-0.0083,-0.0033,-0.004,-0.0081,-0.0039,-0.0039,0.0022,0.0031,0.005,0.0107,0.0112,0.0096,0.0098,0.01,0.0101,0,0,0,0,0,0,0,-0.0215,-0.0209,-0.0161,-0.0165,-0.0159,-0.012,-0.0112,-0.0073,-0.0031,-0.0077,-0.0073,-0.0065,0.0025,0.0046,0.0054,0.0114,0.0096,0.0099,0.0102,0.0104,0.0197,0.0197,0,0,0,0,0,0,-0.0235,-0.0213,-0.0164,-0.0159,-0.0185,-0.012,-0.0111,-0.0107,-0.0031,-0.002,-0.0066,-0.0063,0.0039,0.0049,0.0058,0.0085,0.01,0.0104,0.0106,0.0197,0.0197,0.0196,0,0,0,0,0,0,-0.0236,-0.0231,-0.0168,-0.0184,-0.0174,-0.012,-0.0115,-0.0105,-0.0085,-0.0023,-0.0011,-0.0057,0.0039,0.0052,0.0092,0.009,0.0106,0.011,0.0197,0.0197,0.0197,0.0139,0,0,0,0,0,0,-0.0239,-0.0233,-0.0237,-0.0186,-0.0174,-0.0147,-0.0116,-0.0104,-0.0082,-0.0077,-0.0011,-0.0,0.0041,0.0085,0.0096,0.0096,0.0113,0.0197,0.0197,0.0197,0.0141,0.0136,0.0133,0,0,0,0,0,-0.0241,-0.025,-0.0237,-0.0231,-0.0181,-0.0148,-0.0138,-0.0096,-0.0082,-0.0077,-0.0031,-0.0002,0.0092,0.0089,0.0101,0.0102,0.0197,0.0197,0.0197,0.0142,0.0137,0.0133,0,0,0,0,0,0,-0.0276,-0.0243,-0.0228,-0.0226,-0.0194,-0.0138,-0.0131,-0.0103,-0.0062,-0.0058,0.0,0.0015,0.0047,0.0082,0.0077,0.0128,0.0148,0.015,0.0102,0.0098,0.0094,0.008,0.0117,0,0,0,0,0,-0.0288,-0.0288,-0.0246,-0.0244,-0.0233,-0.0184,-0.0165,-0.0138,-0.0096,-0.0077,-0.0032,0.0016,0.0057,0.0082,0.0121,0.0152,0.0186,0.016,0.0156,0.0152,0.015,0.0197,0.0197,0.0196,0.0196,0.0196,0,0,-0.0301,-0.0284,-0.0282,-0.0252,-0.0224,-0.0212,-0.0172,-0.015,-0.0135,-0.0072,-0.0041,0.0002,0.006,0.0094,0.0111,0.0124,0.017,0.0152,0.0148,0.0148,0.0197,0.0197,0.0197,0.0196,0.0196,0.0196,0,0,-0.033,-0.0313,-0.0323,-0.0302,-0.0269,-0.0237,-0.0236,-0.0186,-0.0159,-0.0125,-0.0077,-0.0035,0.0026,0.0071,0.0101,0.01,0.0145,0.0109,0.0085,0.013,0.0131,0.0131,0.0171,0.0176,0.0111,0.0111,0.0111,0,-0.0348,-0.0354,-0.0319,-0.0321,-0.0309,-0.0255,-0.0259,-0.0222,-0.0164,-0.0142,-0.0126,-0.003,0.0016,0.0067,0.0067,0.0091,0.0121,0.0096,0.0125,0.0126,0.0128,0.0169,0.0175,0.0108,0.0108,0.0109,0.0109,0,-0.0381,-0.0385,-0.0389,-0.0375,-0.0356,-0.0351,-0.0301,-0.0276,-0.024,-0.0198,-0.0146,-0.0077,-0.0019,0.0001,0.0036,0.0073,0.0091,0.011,0.0133,0.0124,0.0169,0.0176,0.0104,0.0105,0.0106,0.0106,0,0,-0.042,-0.0416,-0.0417,-0.0426,-0.0386,-0.0377,-0.0351,-0.031,-0.0294,-0.0231,-0.0201,-0.0124,-0.0083,-0.0047,0.0006,0.0049,0.0088,0.0079,0.0083,0.0113,0.0184,0.0219,0.0231,0.011,0.0111,0.0112,0.0208,0,-0.0457,-0.0488,-0.0465,-0.0483,-0.0495,-0.044,-0.0422,-0.0376,-0.0324,-0.028,-0.0197,-0.0151,-0.0101,-0.0075,-0.0024,0.0063,0.0105,0.0059,0.0193,0.0197,0.0225,0.024,0.0205,0.029,0.0216,0.0217,0.0218,0,-0.0495,-0.0513,-0.0547,-0.0547,-0.0545,-0.0542,-0.0505,-0.0479,-0.0397,-0.0357,-0.0287,-0.0218,-0.0133,-0.01,0.0045,0.0013,0.0088,0.0153,0.0159,0.0217,0.0246,0.0289,0.0307,0.0231,0.023,0.0229,0.0228,0,-0.0549,-0.0567,-0.0601,-0.0601,-0.0588,-0.0588,-0.0572,-0.0506,-0.0486,-0.0403,-0.0378,-0.0262,-0.0203,-0.0092,0.0053,0.0048,0.0206,0.022,0.0322,0.0325,0.0336,0.0338,0.0308,0.0308,0.0308,0.0307,0.0307,0,-0.0598,-0.0623,-0.0634,-0.0653,-0.0686,-0.065,-0.066,-0.0619,-0.0562,-0.054,-0.0425,-0.0381,-0.02,-0.0081,0.004,0.0212,0.0202,0.0323,0.0356,0.0315,0.0314,0.0294,0.0291,0.0311,0.031,0.0309,0.0309,0,-0.0648,-0.0655,-0.0699,-0.0711,-0.0716,-0.0739,-0.0732,-0.0734,-0.0667,-0.0633,-0.061,-0.046,-0.0293,-0.011,0.0086,0.0197,0.0352,0.0407,0.0347,0.0372,0.0441,0.0434,0.0537,0.0539,0.054,0.0542,0.0543,0,-0.0677,-0.0706,-0.0753,-0.0788,-0.0798,-0.0825,-0.0841,-0.0794,-0.0787,-0.0682,-0.067,-0.05,-0.037,-0.0059,0.0171,0.0407,0.04,0.0498,0.0489,0.0445,0.0467,0.0457,0.0448,0.0478,0.0479,0.048,0.048,0,-0.073,-0.0747,-0.0786,-0.0864,-0.0903,-0.0942,-0.0956,-0.0966,-0.0896,-0.085,-0.0753,-0.0639,-0.0317,-0.0051,0.0267,0.0396,0.0463,0.0517,0.0497,0.0425,0.0398,0.0417,0.0408,0.0484,0.0484,0.0484,0.0483,0.0483,-0.0763,-0.081,-0.0867,-0.0936,-0.0989,-0.1041,-0.1071,-0.1062,-0.1045,-0.0949,-0.0832,-0.0638,-0.0355,0.0097,0.0322,0.0537,0.0538,0.0583,0.0578,0.0573,0.0548,0.0526,0.0631,0.0632,0.0632,0.0632,0.0633,0,-0.0804,-0.0859,-0.0935,-0.1015,-0.1086,-0.1096,-0.1133,-0.1138,-0.1117,-0.0992,-0.087,-0.0564,-0.0241,0.0055,0.0403,0.061,0.0588,0.0634,0.0562,0.0557,0.0553,0.0523,0.0603,0.0603,0.0603,0.0604,0,0,-0.0828,-0.0909,-0.0952,-0.1076,-0.1136,-0.1209,-0.1232,-0.121,-0.1133,-0.1014,-0.0856,-0.0625,-0.025,-0.0015,0.0253,0.0435,0.0435,0.0448,0.0451,0.0329,0.0322,0.0506,0.0453,0,0,0,0,0]}],[{"header":{"parameterUnit":"m.s-1","parameterCategory":2,"la1":30.2991,"la2":30.254,"lo1":-89.0895,"lo2":-89.0444,"dy":0.0017,"dx":0.0017,"nx":28,"ny":28,"refTime":"2025-11-30T09:00:00:Z","depth":"4","parameterNumber":2,"parameterNumberName":"U-component_of_CURRENTS"},"data":[0,0,0,0,0,0,0,0,0,0,0,0,0,0,0,0,0,0,0,0,0,0,0,0,0,0,0,0,0,0,0,0,0,0,0,0,0,0,0,0,0,0,0,0,0,0,0,0,0,0,0,0,0,0,0,0,0,0,-0.1419,-0.142,0,-0.1472,-0.1472,-0.1473,-0.1507,-0.1507,-0.1507,-0.1508,-0.1564,-0.1565,-0.1566,0,0,0,0,0,0,0,0,0,0,0,0,0,-0.1347,-0.1348,-0.1419,-0.142,-0.1421,-0.1472,-0.1472,-0.1473,-0.1507,-0.1507,-0.1508,-0.1508,-0.1563,-0.1565,-0.1566,0,0,0,0,0,0,0,0,0,0,0,0,0,-0.1385,-0.1348,-0.1419,-0.1445,-0.1448,-0.1472,-0.1472,-0.1473,-0.1507,-0.1507,-0.1508,-0.1508,-0.1563,-0.1565,-0.1566,-0.1566,0,0,-0.1572,-0.1572,0,0,0,0,0,0,0,0,-0.1383,-0.1388,-0.144,-0.1443,-0.1447,-0.1485,-0.1467,-0.1505,-0.1507,-0.1483,-0.1508,-0.1508,-0.1538,-0.1542,-0.1548,-0.1569,-0.1572,-0.1572,-0.1573,-0.1574,-0.1574,0,0,0,0,0,0,0,-0.138,-0.1386,-0.1438,-0.1441,-0.1445,-0.1454,-0.1459,-0.1474,-0.1506,-0.1485,-0.1488,-0.1496,-0.154,-0.1547,-0.155,-0.1572,-0.1572,-0.1573,-0.1574,-0.1575,-0.1669,-0.1671,0,0,0,0,0,0,-0.1376,-0.1383,-0.1437,-0.144,-0.1417,-0.1455,-0.1461,-0.1471,-0.1506,-0.1512,-0.1495,-0.1497,-0.1543,-0.1548,-0.1552,-0.1623,-0.1574,-0.1575,-0.1576,-0.1668,-0.167,-0.1671,0,0,0,0,0,0,-0.1375,-0.1381,-0.1435,-0.1414,-0.1422,-0.1455,-0.1466,-0.1471,-0.1504,-0.1514,-0.152,-0.1525,-0.1544,-0.155,-0.1592,-0.1623,-0.1576,-0.1578,-0.1666,-0.1668,-0.167,-0.172,0,0,0,0,0,0,-0.1372,-0.138,-0.1397,-0.1414,-0.1423,-0.1467,-0.1466,-0.1472,-0.1507,-0.151,-0.154,-0.1545,-0.1545,-0.1589,-0.1594,-0.1624,-0.1579,-0.1664,-0.1667,-0.167,-0.1717,-0.1724,-0.173,0,0,0,0,0,-0.137,-0.1387,-0.1397,-0.1404,-0.1441,-0.1468,-0.1474,-0.1498,-0.1508,-0.1528,-0.1551,-0.1545,-0.161,-0.1592,-0.1597,-0.1628,-0.1663,-0.1666,-0.1669,-0.1714,-0.1722,-0.173,0,0,0,0,0,0,-0.1365,-0.1392,-0.1404,-0.143,-0.1456,-0.1475,-0.1497,-0.1512,-0.1546,-0.1557,-0.1564,-0.157,-0.1618,-0.1617,-0.1598,-0.1664,-0.1636,-0.164,-0.1668,-0.1676,-0.1682,-0.168,-0.158,0,0,0,0,0,-0.1371,-0.1392,-0.1418,-0.1441,-0.1456,-0.1482,-0.15,-0.1519,-0.1544,-0.1561,-0.1583,-0.1607,-0.163,-0.1649,-0.1668,-0.1704,-0.1696,-0.1728,-0.1735,-0.174,-0.1743,-0.1756,-0.1764,-0.1682,-0.1682,-0.1682,0,0,-0.1376,-0.1394,-0.1407,-0.1443,-0.1464,-0.1495,-0.1495,-0.1532,-0.1565,-0.1561,-0.1619,-0.1633,-0.1646,-0.1688,-0.1709,-0.1695,-0.1761,-0.1745,-0.1749,-0.1748,-0.176,-0.1768,-0.1775,-0.1684,-0.1684,-0.1683,0,0,-0.1389,-0.1414,-0.1435,-0.1462,-0.1502,-0.1519,-0.1536,-0.1573,-0.1601,-0.165,-0.1657,-0.1692,-0.1731,-0.1746,-0.1757,-0.1811,-0.1795,-0.1821,-0.1855,-0.1868,-0.1875,-0.188,-0.1883,-0.1888,-0.1825,-0.1825,-0.1825,0,-0.1397,-0.1426,-0.1447,-0.1477,-0.1505,-0.1534,-0.1569,-0.1599,-0.1649,-0.1674,-0.1679,-0.1745,-0.1758,-0.1802,-0.1823,-0.1827,-0.1825,-0.1822,-0.1876,-0.1881,-0.1886,-0.1887,-0.1892,-0.1828,-0.1828,-0.1827,-0.1827,0,-0.1419,-0.1456,-0.1473,-0.152,-0.1554,-0.1589,-0.1632,-0.1674,-0.171,-0.1737,-0.1798,-0.1817,-0.1852,-0.1866,-0.1862,-0.1908,-0.1894,-0.1881,-0.1852,-0.1897,-0.1895,-0.19,-0.1832,-0.1831,-0.183,-0.1829,0,0,-0.1399,-0.1474,-0.1483,-0.1517,-0.1582,-0.1608,-0.1672,-0.1729,-0.1771,-0.1821,-0.1872,-0.1915,-0.1924,-0.1936,-0.1939,-0.1955,-0.199,-0.1937,-0.1936,-0.1933,-0.2014,-0.1886,-0.1878,-0.1986,-0.1987,-0.1988,-0.1999,0,-0.1412,-0.1471,-0.151,-0.1577,-0.161,-0.1665,-0.172,-0.1778,-0.1827,-0.1884,-0.1914,-0.1961,-0.1951,-0.1973,-0.1988,-0.1991,-0.2004,-0.1987,-0.1976,-0.1976,-0.1851,-0.188,-0.1991,-0.2003,-0.2004,-0.2004,-0.2005,0,-0.1414,-0.1457,-0.1521,-0.1607,-0.1629,-0.1677,-0.1765,-0.1819,-0.1899,-0.1937,-0.1986,-0.2009,-0.2051,-0.203,-0.2056,-0.2047,-0.2036,-0.2032,-0.2032,-0.1895,-0.1855,-0.1949,-0.2013,-0.2012,-0.2011,-0.2011,-0.201,0,-0.1372,-0.1462,-0.1515,-0.1545,-0.1646,-0.1693,-0.175,-0.1836,-0.1882,-0.1971,-0.2007,-0.2058,-0.2085,-0.2091,-0.2081,-0.2077,-0.2093,-0.2083,-0.1958,-0.1949,-0.2039,-0.2033,-0.2096,-0.2096,-0.2096,-0.2096,-0.2096,0,-0.1353,-0.1399,-0.1505,-0.1532,-0.16,-0.168,-0.1755,-0.1819,-0.1907,-0.1952,-0.2027,-0.2052,-0.2102,-0.2114,-0.21,-0.2033,-0.2107,-0.1963,-0.1942,-0.2061,-0.2057,-0.2042,-0.2036,-0.2097,-0.2097,-0.2096,-0.2096,0,-0.129,-0.1364,-0.1427,-0.1541,-0.1581,-0.1627,-0.1745,-0.1788,-0.1887,-0.1946,-0.1975,-0.2058,-0.207,-0.2096,-0.2105,-0.2037,-0.2001,-0.1959,-0.2084,-0.207,-0.1847,-0.1843,-0.1823,-0.1819,-0.1815,-0.1812,-0.1809,0,-0.1259,-0.1287,-0.1411,-0.1448,-0.1503,-0.1588,-0.1638,-0.1758,-0.1797,-0.1923,-0.193,-0.1995,-0.2029,-0.1935,-0.1979,-0.1944,-0.1918,-0.1887,-0.1866,-0.1836,-0.1819,-0.1821,-0.1823,-0.1803,-0.1802,-0.1801,-0.18,0,-0.1191,-0.1246,-0.1297,-0.1368,-0.1432,-0.1495,-0.1577,-0.1593,-0.1718,-0.1829,-0.1832,-0.1837,-0.1849,-0.1846,-0.1828,-0.1803,-0.1901,-0.1847,-0.1855,-0.1835,-0.1812,-0.1799,-0.1805,-0.1787,-0.1789,-0.179,-0.1791,0,-0.1136,-0.1149,-0.1217,-0.1268,-0.1341,-0.1367,-0.1432,-0.1476,-0.1531,-0.1673,-0.1668,-0.174,-0.1826,-0.1772,-0.1756,-0.1721,-0.1697,-0.1635,-0.1653,-0.1668,-0.1611,-0.1558,-0.1435,0,0,0,0,0,-0.1069,-0.1071,-0.111,-0.1157,-0.1221,-0.1263,-0.137,-0.1439,-0.1561,-0.1519,-0.159,-0.1595,-0.1582,-0.1622,-0.1552,-0.1687,-0.1702,-0.1598,-0.164,-0.1714,-0.173,-0.1675,0,0,0,0,0,0,-0.1025,-0.1055,-0.1067,-0.1043,-0.1054,-0.111,-0.1173,-0.1265,-0.1254,-0.1386,-0.1386,-0.1488,-0.1498,-0.1591,-0.1514,-0.1525,-0.1516,-0.1653,-0.1648,-0.1706,-0.172,-0.1732,-0.1681,0,0,0,0,0]},{"header":{"parameterUnit":"m.s-1","parameterCategory":2,"la1":30.2991,"la2":30.254,"lo1":-89.0895,"lo2":-89.0444,"dy":0.0017,"dx":0.0017,"nx":28,"ny":28,"refTime":"2025-11-30T09:00:00:Z","depth":"4","parameterNumber":3,"parameterNumberName":"V-component_of_CURRENTS"},"data":[0,0,0,0,0,0,0,0,0,0,0,0,0,0,0,0,0,0,0,0,0,0,0,0,0,0,0,0,0,0,0,0,0,0,0,0,0,0,0,0,0,0,0,0,0,0,0,0,0,0,0,0,0,0,0,0,0,0,-0.0118,-0.0118,0,-0.0052,-0.0052,-0.0051,-0.0004,-0.0004,-0.0004,-0.0004,0.0089,0.0092,0.0094,0,0,0,0,0,0,0,0,0,0,0,0,0,-0.0153,-0.0153,-0.0118,-0.0118,-0.0117,-0.0053,-0.0052,-0.005,-0.0004,-0.0004,-0.0004,-0.0004,0.0089,0.0091,0.0094,0,0,0,0,0,0,0,0,0,0,0,0,0,-0.0117,-0.0153,-0.0119,-0.0088,-0.0084,-0.0053,-0.0052,-0.005,-0.0004,-0.0004,-0.0004,-0.0004,0.0088,0.0091,0.0095,0.0109,0,0,0.0105,0.0106,0,0,0,0,0,0,0,0,-0.0119,-0.0115,-0.0093,-0.009,-0.0086,-0.0038,-0.003,0.0004,-0.0005,-0.0033,-0.0004,-0.0003,0.0048,0.0055,0.0069,0.0114,0.0118,0.0105,0.0107,0.0109,0.011,0,0,0,0,0,0,0,-0.0121,-0.0117,-0.0091,-0.0092,-0.0088,-0.006,-0.0054,-0.0023,0.0007,-0.003,-0.0027,-0.0023,0.005,0.0065,0.0071,0.0119,0.0105,0.0108,0.011,0.0112,0.0188,0.0188,0,0,0,0,0,0,-0.0136,-0.012,-0.0093,-0.0089,-0.0104,-0.006,-0.0053,-0.0052,0.0006,0.0014,-0.0023,-0.0021,0.0059,0.0067,0.0075,0.0097,0.0109,0.0112,0.0114,0.0188,0.0188,0.0188,0,0,0,0,0,0,-0.0137,-0.0134,-0.0095,-0.0104,-0.0097,-0.006,-0.0058,-0.0051,-0.0037,0.0011,0.002,-0.0017,0.006,0.007,0.0102,0.0101,0.0114,0.0117,0.0188,0.0188,0.0188,0.0141,0,0,0,0,0,0,-0.0138,-0.0135,-0.014,-0.0105,-0.0097,-0.0083,-0.0059,-0.005,-0.0036,-0.0032,0.0019,0.0028,0.0061,0.0096,0.0105,0.0106,0.0119,0.0188,0.0188,0.0188,0.0143,0.014,0.0137,0,0,0,0,0,-0.014,-0.0148,-0.0141,-0.0137,-0.0105,-0.0083,-0.0077,-0.0047,-0.0036,-0.0033,0.0004,0.0027,0.0102,0.0099,0.011,0.0111,0.0188,0.0188,0.0188,0.0144,0.014,0.0137,0,0,0,0,0,0,-0.0163,-0.0143,-0.0134,-0.0136,-0.0115,-0.0076,-0.0072,-0.0052,-0.0021,-0.0018,0.0029,0.004,0.0066,0.0095,0.009,0.0133,0.0148,0.015,0.0111,0.0108,0.0105,0.0093,0.0122,0,0,0,0,0,-0.0173,-0.0176,-0.0148,-0.015,-0.0143,-0.0109,-0.0097,-0.0078,-0.0047,-0.0033,0.0003,0.0041,0.0074,0.0095,0.0126,0.0152,0.0179,0.0159,0.0156,0.0153,0.0151,0.019,0.0191,0.0188,0.0188,0.0188,0,0,-0.0182,-0.0172,-0.0173,-0.0156,-0.0138,-0.0132,-0.0101,-0.0088,-0.0078,-0.0027,-0.0005,0.003,0.0077,0.0105,0.0119,0.0129,0.0168,0.0153,0.015,0.0149,0.019,0.0191,0.0191,0.0188,0.0188,0.0188,0,0,-0.0204,-0.0195,-0.0205,-0.0192,-0.0173,-0.0151,-0.0151,-0.0116,-0.0097,-0.0072,-0.0033,0.0001,0.005,0.0087,0.0111,0.0111,0.0147,0.0119,0.01,0.0138,0.0139,0.014,0.017,0.0174,0.0121,0.0121,0.0121,0,-0.0217,-0.0226,-0.0204,-0.0208,-0.0203,-0.0164,-0.0171,-0.0144,-0.0102,-0.0087,-0.0073,0.0004,0.0042,0.0084,0.0085,0.0105,0.0128,0.0109,0.0134,0.0135,0.0137,0.0168,0.0173,0.0119,0.0119,0.012,0.012,0,-0.0243,-0.0251,-0.0256,-0.0251,-0.024,-0.024,-0.0206,-0.0189,-0.0163,-0.0132,-0.0091,-0.0034,0.0012,0.003,0.0059,0.0091,0.0104,0.0121,0.014,0.0134,0.0168,0.0174,0.0116,0.0117,0.0117,0.0118,0,0,-0.0267,-0.0275,-0.0277,-0.0288,-0.0265,-0.0262,-0.0245,-0.0219,-0.0209,-0.016,-0.014,-0.0074,-0.0041,-0.0011,0.0034,0.0071,0.0104,0.0097,0.01,0.0122,0.0183,0.0171,0.0177,0.0124,0.0125,0.0125,0.02,0,-0.0295,-0.0326,-0.0314,-0.0337,-0.0349,-0.0314,-0.0304,-0.0273,-0.0236,-0.0206,-0.0137,-0.0102,-0.0056,-0.0035,0.001,0.0083,0.0118,0.0082,0.019,0.0193,0.018,0.0183,0.0128,0.0204,0.0206,0.0207,0.0207,0,-0.0322,-0.0342,-0.0376,-0.0389,-0.0391,-0.0395,-0.0377,-0.0361,-0.0302,-0.0273,-0.0217,-0.0161,-0.0088,-0.0059,0.0066,0.004,0.0102,0.0157,0.0161,0.0171,0.0192,0.0215,0.0219,0.0218,0.0217,0.0216,0.0215,0,-0.0357,-0.0383,-0.0418,-0.0421,-0.0425,-0.0433,-0.0428,-0.0384,-0.0374,-0.0314,-0.0298,-0.02,-0.0153,-0.0056,0.0064,0.0065,0.0192,0.021,0.0258,0.0258,0.0267,0.0266,0.0283,0.0283,0.0283,0.0283,0.0282,0,-0.0388,-0.0415,-0.0443,-0.0462,-0.05,-0.0481,-0.0502,-0.0475,-0.0441,-0.043,-0.0339,-0.0307,-0.0151,-0.0055,0.0049,0.0173,0.0185,0.0254,0.0277,0.0245,0.024,0.0271,0.0269,0.0285,0.0285,0.0284,0.0284,0,-0.0414,-0.0432,-0.0479,-0.0507,-0.052,-0.0547,-0.0564,-0.0571,-0.0529,-0.0511,-0.0495,-0.0379,-0.0247,-0.0095,0.007,0.0149,0.0269,0.0304,0.0253,0.0272,0.0313,0.0308,0.037,0.037,0.037,0.037,0.037,0,-0.043,-0.0457,-0.052,-0.0558,-0.0577,-0.0616,-0.064,-0.0619,-0.0619,-0.0555,-0.0547,-0.0422,-0.033,-0.0105,0.0052,0.0254,0.0277,0.0333,0.033,0.0306,0.0323,0.0317,0.0311,0.0371,0.0371,0.0371,0.0371,0,-0.0457,-0.0484,-0.0523,-0.0606,-0.0655,-0.0702,-0.073,-0.0737,-0.0699,-0.0668,-0.0583,-0.0453,-0.0305,-0.0115,0.0043,0.0184,0.0298,0.0336,0.0337,0.0334,0.0308,0.0323,0.0317,0.0371,0.0371,0.0371,0.0371,0,-0.0474,-0.0514,-0.0575,-0.0642,-0.0711,-0.0761,-0.0775,-0.0766,-0.0756,-0.0672,-0.0649,-0.0477,-0.0369,-0.0152,-0.0011,0.0136,0.0173,0.021,0.0218,0.0219,0.0154,0.0098,0.0115,0,0,0,0,0,-0.0485,-0.0534,-0.0606,-0.068,-0.0749,-0.0787,-0.0819,-0.0818,-0.0785,-0.0733,-0.0685,-0.0545,-0.0311,-0.021,-0.0065,-0.001,0.0192,0.0162,0.0236,0.0375,0.0374,0.0324,0,0,0,0,0,0,-0.0496,-0.0564,-0.0605,-0.0694,-0.075,-0.0819,-0.0844,-0.0825,-0.0786,-0.0732,-0.0608,-0.0524,-0.0297,-0.0392,-0.0066,-0.0021,0.0041,0.028,0.0282,0.0376,0.0375,0.0374,0.0322,0,0,0,0,0]}]]